Location: Anan
(43.3550°N, 0.8171°E)
Time: 05:17:57
(UTC+00:00)

ATLAS 3B R/B - Pass Details

Date: 14 May 2026
Orbit: 937 x 1256 km, 63.8° (Epoch: 6 June)

Event Time Altitude Azimuth Distance (km) Brightness Sun altitude
Rises 20:02:30 0° 320° (NW) 4,189 7.7 -8.5°
Reaches altitude 10° 20:05:26 10° 316° (NW) 3,195 6.8 -8.9°
Maximum altitude 20:12:44 49° 245° (WSW) 1,495 3.7 -10.0°
Drops below altitude 10° 20:19:34 10° 173° (S) 2,987 4.6 -10.9°
Enters shadow 20:21:04 - 169° (S) 3,496 4.9 -11.1°
